When you browse on this site, cookies collect data to enhance your experience and personalize the content and advertising you see.
Visit our Privacy Policy to learn more. By continuing to use the site, you agree to this use of cookies and data.
  • In Hungary
  • List of Countries
  • For 7 days
  • Water Temperature
  • Satellite Maps
  • Weather Map
  • News
  • Weather Widgets
  • user-avatar
    Login

    Hourly Weather Irvadan

    Today, 19 December, Wednesday

    Time Temperature Precipitation Wind Pressure Humidity
    00:00 +7°C° 0.1 mm 1 mps 727 mmHg 77%
    01:00 +7°C° 0.1 mm 1 mps 727 mmHg 78%
    02:00 +7°C° 0.1 mm 1 mps 727 mmHg 78%
    03:00 +6°C° 0.3 mm 0 mps 727 mmHg 80%
    04:00 +6°C° 0.3 mm 0 mps 727 mmHg 82%
    05:00 +6°C° 0.3 mm 0 mps 727 mmHg 83%
    06:00 +5°C° 0.3 mm 0 mps 727 mmHg 84%
    07:00 +5°C° 0.3 mm 0 mps 727 mmHg 85%
    08:00 +6°C° 0.3 mm 1 mps 727 mmHg 85%
    09:00 +7°C° 0.3 mm 1 mps 727 mmHg 84%
    10:00 +7°C° 0.3 mm 1 mps 727 mmHg 83%
    11:00 +7°C° 0.3 mm 1 mps 727 mmHg 82%
    12:00 +7°C° 0.3 mm 1 mps 727 mmHg 83%
    13:00 +8°C° 0.3 mm 1 mps 727 mmHg 84%
    14:00 +8°C° 0.3 mm 1 mps 727 mmHg 85%
    15:00 +8°C° 0.3 mm 1 mps 728 mmHg 87%
    16:00 +7°C° 0.3 mm 1 mps 728 mmHg 88%
    17:00 +7°C° 0.3 mm 1 mps 729 mmHg 90%
    18:00 +7°C° 0.4 mm 1 mps 729 mmHg 90%
    19:00 +6°C° 0.4 mm 2 mps 730 mmHg 90%
    20:00 +6°C° 0.4 mm 2 mps 731 mmHg 90%
    21:00 +6°C° 0.3 mm 2 mps 731 mmHg 89%
    22:00 +6°C° 0.3 mm 2 mps 731 mmHg 88%
    23:00 +6°C° 0.3 mm 2 mps 732 mmHg 87%

    Tomorrow, 20 December, Thursday

    Time Temperature Precipitation Wind Pressure Humidity
    00:00 +6°C° 0.3 mm 2 mps 732 mmHg 85%
    01:00 +6°C° 0.3 mm 2 mps 732 mmHg 84%
    02:00 +6°C° 0.3 mm 2 mps 733 mmHg 83%
    03:00 +5°C° 0.3 mm 2 mps 733 mmHg 82%
    04:00 +5°C° 0.3 mm 2 mps 733 mmHg 82%
    05:00 +5°C° 0.3 mm 2 mps 734 mmHg 82%
    06:00 +5°C° 0.3 mm 2 mps 734 mmHg 82%
    07:00 +5°C° 0.3 mm 2 mps 734 mmHg 82%
    08:00 +5°C° 0.3 mm 2 mps 735 mmHg 82%
    09:00 +5°C° 0.3 mm 2 mps 735 mmHg 80%
    10:00 +5°C° 0.3 mm 2 mps 735 mmHg 79%
    11:00 +5°C° 0.3 mm 2 mps 735 mmHg 77%
    12:00 +5°C° 0.2 mm 2 mps 735 mmHg 76%
    13:00 +6°C° 0.2 mm 2 mps 735 mmHg 74%
    14:00 +6°C° 0.2 mm 2 mps 735 mmHg 73%
    15:00 +5°C° 0.1 mm 2 mps 735 mmHg 75%
    16:00 +6°C° 0.1 mm 1 mps 736 mmHg 77%
    17:00 +6°C° 0.1 mm 1 mps 736 mmHg 79%
    18:00 +5°C° 0 mm 1 mps 736 mmHg 80%
    19:00 +5°C° 0 mm 1 mps 737 mmHg 81%
    20:00 +3°C° 0 mm 2 mps 737 mmHg 81%
    21:00 +3°C° 0 mm 2 mps 737 mmHg 80%
    22:00 +3°C° 0 mm 2 mps 737 mmHg 78%
    23:00 +2°C° 0 mm 2 mps 737 mmHg 77%

    Day after tomorrow, 21 December, Friday

    Time Temperature Precipitation Wind Pressure Humidity
    00:00 +2°C° 0 mm 2 mps 737 mmHg 74%
    01:00 +2°C° 0 mm 2 mps 737 mmHg 71%
    02:00 +2°C° 0 mm 2 mps 736 mmHg 68%
    03:00 +2°C° 0 mm 2 mps 736 mmHg 66%
    04:00 +2°C° 0 mm 2 mps 736 mmHg 64%
    05:00 +2°C° 0 mm 2 mps 735 mmHg 62%
    06:00 +2°C° 0 mm 2 mps 735 mmHg 61%
    07:00 +2°C° 0 mm 2 mps 735 mmHg 60%
    08:00 +2°C° 0 mm 2 mps 735 mmHg 59%
    09:00 +3°C° 0 mm 2 mps 734 mmHg 54%
    10:00 +5°C° 0 mm 2 mps 733 mmHg 50%
    11:00 +6°C° 0 mm 2 mps 732 mmHg 45%
    12:00 +7°C° 0 mm 2 mps 731 mmHg 43%
    13:00 +8°C° 0 mm 2 mps 730 mmHg 41%
    14:00 +10°C° 0 mm 1 mps 730 mmHg 39%
    15:00 +9°C° 0 mm 1 mps 730 mmHg 42%
    16:00 +7°C° 0 mm 1 mps 730 mmHg 45%
    17:00 +6°C° 0 mm 1 mps 730 mmHg 48%
    18:00 +6°C° 0 mm 1 mps 730 mmHg 48%
    19:00 +6°C° 0 mm 1 mps 729 mmHg 48%
    20:00 +5°C° 0 mm 2 mps 729 mmHg 47%
    21:00 +5°C° 0 mm 2 mps 729 mmHg 48%
    22:00 +5°C° 0 mm 2 mps 728 mmHg 48%
    23:00 +6°C° 0 mm 1 mps 728 mmHg 49%

    22 December, Saturday

    Time Temperature Precipitation Wind Pressure Humidity
    00:00 +5°C° 0 mm 1 mps 727 mmHg 50%
    01:00 +5°C° 0 mm 1 mps 727 mmHg 51%
    02:00 +5°C° 0 mm 1 mps 727 mmHg 52%
    03:00 +5°C° 0 mm 1 mps 726 mmHg 53%
    04:00 +5°C° 0 mm 1 mps 726 mmHg 54%
    05:00 +5°C° 0 mm 1 mps 726 mmHg 55%
    06:00 +5°C° 0 mm 1 mps 726 mmHg 55%
    07:00 +5°C° 0 mm 1 mps 726 mmHg 55%
    08:00 +6°C° 0 mm 1 mps 726 mmHg 56%
    09:00 +7°C° 0 mm 1 mps 726 mmHg 53%
    10:00 +8°C° 0 mm 1 mps 726 mmHg 50%
    11:00 +9°C° 0 mm 1 mps 726 mmHg 47%
    12:00 +9°C° 0 mm 1 mps 726 mmHg 46%
    13:00 +10°C° 0 mm 1 mps 726 mmHg 45%
    14:00 +10°C° 0 mm 1 mps 725 mmHg 44%
    15:00 +10°C° 0 mm 1 mps 726 mmHg 46%
    16:00 +9°C° 0 mm 1 mps 726 mmHg 48%
    17:00 +8°C° 0 mm 1 mps 726 mmHg 50%
    18:00 +8°C° 0 mm 1 mps 727 mmHg 51%
    19:00 +8°C° 0 mm 1 mps 727 mmHg 51%
    20:00 +6°C° 0 mm 0 mps 727 mmHg 52%
    21:00 +7°C° 0 mm 1 mps 727 mmHg 53%
    22:00 +7°C° 0 mm 1 mps 727 mmHg 54%
    23:00 +7°C° 0 mm 1 mps 727 mmHg 55%

    23 December, Sunday

    Time Temperature Precipitation Wind Pressure Humidity
    00:00 +7°C° 0 mm 1 mps 727 mmHg 55%
    01:00 +7°C° 0 mm 1 mps 727 mmHg 56%
    02:00 +6°C° 0 mm 1 mps 727 mmHg 56%
    03:00 +5°C° 0 mm 0 mps 727 mmHg 57%
    04:00 +5°C° 0 mm 0 mps 727 mmHg 57%
    05:00 +5°C° 0 mm 0 mps 727 mmHg 57%
    06:00 +5°C° 0 mm 0 mps 727 mmHg 58%
    07:00 +4°C° 0 mm 0 mps 727 mmHg 58%
    08:00 +4°C° 0 mm 0 mps 728 mmHg 59%
    09:00 +5°C° 0 mm 0 mps 728 mmHg 56%
    10:00 +6°C° 0 mm 0 mps 728 mmHg 54%
    11:00 +7°C° 0 mm 0 mps 728 mmHg 51%
    12:00 +9°C° 0 mm 1 mps 728 mmHg 50%
    13:00 +9°C° 0 mm 1 mps 728 mmHg 50%
    14:00 +10°C° 0 mm 1 mps 727 mmHg 49%
    15:00 +9°C° 0 mm 1 mps 728 mmHg 52%
    16:00 +8°C° 0 mm 1 mps 728 mmHg 55%
    17:00 +8°C° 0 mm 1 mps 728 mmHg 57%
    18:00 +7°C° 0 mm 1 mps 729 mmHg 58%
    19:00 +6°C° 0 mm 0 mps 729 mmHg 59%
    20:00 +6°C° 0 mm 0 mps 729 mmHg 60%
    21:00 +5°C° 0 mm 0 mps 729 mmHg 61%
    22:00 +5°C° 0 mm 0 mps 730 mmHg 62%
    23:00 +5°C° 0 mm 0 mps 730 mmHg 63%

    24 December, Monday

    Time Temperature Precipitation Wind Pressure Humidity
    00:00 +5°C° 0 mm 0 mps 730 mmHg 63%
    01:00 +4°C° 0 mm 0 mps 730 mmHg 64%
    02:00 +4°C° 0 mm 0 mps 729 mmHg 65%
    03:00 +4°C° 0 mm 0 mps 730 mmHg 65%
    04:00 +4°C° 0 mm 0 mps 730 mmHg 66%
    05:00 +3°C° 0 mm 0 mps 730 mmHg 67%
    06:00 +3°C° 0 mm 0 mps 730 mmHg 67%
    07:00 +4°C° 0 mm 1 mps 730 mmHg 68%
    08:00 +4°C° 0 mm 1 mps 730 mmHg 68%
    09:00 +5°C° 0 mm 1 mps 730 mmHg 64%
    10:00 +7°C° 0 mm 1 mps 730 mmHg 60%
    11:00 +8°C° 0 mm 1 mps 729 mmHg 55%
    12:00 +8°C° 0 mm 1 mps 729 mmHg 54%
    13:00 +9°C° 0 mm 1 mps 729 mmHg 53%
    14:00 +9°C° 0 mm 1 mps 728 mmHg 52%
    15:00 +9°C° 0 mm 1 mps 728 mmHg 55%
    16:00 +8°C° 0 mm 1 mps 729 mmHg 58%
    17:00 +7°C° 0 mm 1 mps 729 mmHg 61%
    18:00 +7°C° 0 mm 1 mps 729 mmHg 62%
    19:00 +7°C° 0 mm 1 mps 729 mmHg 64%
    20:00 +7°C° 0 mm 1 mps 729 mmHg 65%
    21:00 +6°C° 0 mm 1 mps 729 mmHg 66%
    22:00 +5°C° 0 mm 0 mps 729 mmHg 67%
    23:00 +5°C° 0 mm 0 mps 729 mmHg 67%
    Show more